Tuscaloosa, AL

3:43 AM CDT on October 17, 2017 (GMT -0500)
Tuscaloosa Municipal

Weather History for KTCL - April, 2014

Change the Weather History Date:

Sunday, April 13, 2014

  Actual Average Record
Temperature  
Mean Temperature 68 °F 62 °F  
Max Temperature 81 °F 76 °F 87 °F (1954)
Min Temperature 55 °F 49 °F 36 °F (1959)
Degree Days  
Heating Degree Days 0 4  
Month to date heating degree days 52 72  
Since 1 July heating degree days 2709 2456  
Cooling Degree Days 2    
Growing Degree Days 18 (Base 50)    
Moisture  
Dew Point 57 °F    
Average Humidity 71    
Maximum Humidity 93    
Minimum Humidity 48    
Precipitation  
Precipitation 0.00 in 0.14 in 3.66 in (1979)
Month to date precipitation 4.14 1.89  
Year to date precipitation 17.14 17.10  
Sea Level Pressure  
Sea Level Pressure 30.02 in    
Wind  
Wind Speed 8 mph (South)    
Max Wind Speed 17 mph    
Max Gust Speed 23 mph    
Visibility 10 miles    
Events      
T = Trace of Precipitation, MM = Missing Value Source: NWS Daily Summary

Daily Weather History Graph

Daily Weather History Graph

Search for Another Location

Airport or City:

Trip Planner

Search our weather history database for the weather conditions in past years. The results will help you decide how hot, cold, wet, or windy it might be!

Date:

Astronomy

Apr. 13, 2014 Rise Set
Actual Time 6:22 AM CDT 7:19 PM CDT
Civil Twilight 5:57 AM CDT 7:44 PM CDT
Nautical Twilight 5:27 AM CDT 8:15 PM CDT
Astronomical Twilight 4:56 AM CDT 8:46 PM CDT
Moon 6:00 PM CDT (4/13) 5:16 AM CDT (4/13)
Length of Visible Light 13h 47m
Length of Day
12h 56m
Waxing Gibbous, 97% of the Moon is Illuminated
Apr 13
Waxing Gibbous
Apr 15
Full
Apr 22
Last Quarter
Apr 29
New
May 6
First Quarter

Hourly Weather History & Observations

Time (CDT) Temp. Heat Index Dew Point Humidity Pressure Visibility Wind Dir Wind Speed Gust Speed Precip Events Conditions
12:53 AM 63.0 °F - 55.9 °F 78% 30.06 in 10.0 mi SSW 6.9 mph - N/A   Clear
1:53 AM 64.0 °F - 55.9 °F 75% 30.04 in 10.0 mi South 9.2 mph - N/A   Clear
2:53 AM 61.0 °F - 55.0 °F 81% 30.04 in 10.0 mi South 5.8 mph - N/A   Clear
3:53 AM 60.1 °F - 54.0 °F 80% 30.04 in 10.0 mi South 4.6 mph - N/A   Clear
4:53 AM 55.9 °F - 53.1 °F 90% 30.05 in 9.0 mi Calm Calm - N/A   Clear
5:53 AM 60.1 °F - 54.0 °F 80% 30.05 in 10.0 mi Calm Calm - N/A   Clear
6:53 AM 57.0 °F - 54.0 °F 89% 30.06 in 8.0 mi Calm Calm - N/A   Clear
7:53 AM 63.0 °F - 57.0 °F 81% 30.08 in 9.0 mi South 6.9 mph - N/A   Clear
8:53 AM 66.0 °F - 59.0 °F 78% 30.09 in 10.0 mi South 5.8 mph - N/A   Clear
9:53 AM 71.1 °F - 59.0 °F 66% 30.10 in 10.0 mi South 8.1 mph - N/A   Clear
10:53 AM 73.0 °F - 59.0 °F 61% 30.10 in 10.0 mi SSW 11.5 mph - N/A   Clear
11:53 AM 73.0 °F - 57.0 °F 57% 30.08 in 10.0 mi South 10.4 mph - N/A   Clear
12:53 PM 73.9 °F - 55.9 °F 53% 30.07 in 10.0 mi SSW 10.4 mph - N/A   Partly Cloudy
1:53 PM 78.1 °F - 59.0 °F 52% 30.03 in 10.0 mi South 9.2 mph 18.4 mph N/A   Scattered Clouds
2:53 PM 80.1 °F 80.7 °F 59.0 °F 48% 30.01 in 10.0 mi South 10.4 mph - N/A   Scattered Clouds
3:53 PM 79.0 °F - 59.0 °F 50% 29.98 in 10.0 mi South 11.5 mph 20.7 mph N/A   Partly Cloudy
4:53 PM 79.0 °F - 57.9 °F 48% 29.96 in 10.0 mi South 9.2 mph 17.3 mph N/A   Clear
5:53 PM 78.1 °F - 57.0 °F 48% 29.95 in 10.0 mi South 6.9 mph - N/A   Clear
7:53 PM 75.0 °F - 57.9 °F 55% 29.91 in 10.0 mi SE 4.6 mph - N/A   Clear
8:53 PM 73.9 °F - 57.9 °F 57% 29.91 in 10.0 mi South 11.5 mph - N/A   Clear
9:53 PM 73.9 °F - 57.9 °F 57% 29.91 in 10.0 mi South 12.7 mph - N/A   Clear
10:53 PM 72.0 °F - 57.9 °F 61% 29.92 in 10.0 mi South 11.5 mph - N/A   Clear
11:53 PM 71.1 °F - 57.9 °F 63% 29.94 in 10.0 mi South 11.5 mph - N/A   Clear